Location: Winthrop
(48.4780°N, 120.1850°W)
Time: 02:20:44
(UTC-07:00)

Transit 2A - Pass Details

Date: 22 June 2024
Orbit: 591 x 960 km, 66.7° (Epoch: 23 July)

Event Time Altitude Azimuth Distance (km) Brightness Sun altitude
Rises 00:14:09 0° 325° (NW) 3,493 10.7 -17.3°
Reaches altitude 10° 00:16:37 10° 328° (NNW) 2,593 9.8 -17.3°
Maximum altitude 00:22:44 68° 52° (NE) 1,012 6.7 -17.5°
Enters shadow 00:27:24 19° 132° (SE) 2,105 7.8 -17.7°
